Location: Stamford Observatory
(41.1241°N, 73.5498°W)
Time: 18:28:16
(UTC-04:00)

Daily predictions for brighter satellites

Satellite Brightness Start Highest point End
(mag) Time Altitude Azimuth Time Altitude Azimuth Time Altitude Azimuth
Resurs 1-3 3.8 20:09:58 10° SSE 20:14:15 55° ENE 20:18:33 10° N
Cosmos 44 Rocket 3.3 20:13:06 10° NNW 20:17:51 73° ENE 20:22:39 10° SE
ATLAS 2AS CENTAUR R/B 3.8 20:12:10 10° SSE 20:18:18 27° ESE 20:24:44 10° NE
Cosmos 839 Rocket 4.0 20:12:42 10° SSW 20:18:55 63° ESE 20:25:04 10° NE
SL-16 R/B 2.8 20:15:12 10° SSE 20:20:16 35° ESE 20:25:21 10° NE
Cosmos 1441 Rocket 3.7 20:17:54 10° NNW 20:21:36 62° W 20:25:18 10° S
Meteor 1-20 Rocket 4.4 20:18:06 10° SSW 20:23:40 78° W 20:29:10 10° N
Cosmos 1939 Rocket 3.7 20:21:09 10° SE 20:24:41 32° ENE 20:28:13 10° N
NOSS 3-1 (A) 3.9 20:19:14 10° SW 20:24:57 68° NW 20:31:26 10° NNE
Okean 1 3.3 20:21:46 10° N 20:25:45 85° E 20:29:44 10° S
Cosmos 1452 Rocket 3.5 20:22:56 10° S 20:28:11 75° ESE 20:33:29 10° NNE
Meteor 2-11 Rocket 4.4 20:22:29 10° N 20:28:35 70° E 20:34:36 10° SSE
Cosmos 1536 4.0 20:27:18 10° SE 20:30:39 25° E 20:33:59 10° NE
Cosmos 1420 Rocket 4.1 20:26:29 10° S 20:31:31 54° ESE 20:36:34 10° NNE
Cosmos 1633 2.7 20:28:11 10° S 20:31:47 79° W 20:35:26 10° N
Lacrosse 5 rocket 1.1 20:28:24 10° NW 20:32:05 83° SW 20:35:49 11° SE
Cosmos 407 Rocket 4.3 20:27:27 10° NNW 20:32:41 56° WSW 20:37:51 10° S
S3M 4.1 20:28:36 10° N 20:34:47 59° E 20:41:01 10° SSE
YAOGAN 6 3.6 20:34:18 12° SE 20:37:03 28° ENE 20:40:07 10° NNE
Cosmos 1553 Rocket 4.0 20:31:09 10° N 20:37:18 67° E 20:43:19 10° SSE
Cosmos 921 Rocket 4.1 20:36:03 10° SW 20:40:04 47° WNW 20:44:08 10° N
MINOTAUR R/B 4.2 20:38:03 10° NNW 20:40:49 88° ENE 20:43:20 12° SSE
Okean 1 Rocket 4.2 20:38:19 10° SE 20:41:45 24° E 20:45:16 10° NE
Cosmos 2266 Rocket 4.4 20:37:45 10° SSE 20:43:18 40° E 20:48:52 10° NNE
Helios 1B rocket 3.4 20:39:58 10° NE 20:43:29 27° E 20:46:59 10° SSE
Cosmos 2360 Rocket 3.3 20:39:43 10° SSE 20:43:51 21° E 20:48:00 10° NE
Cosmos 1980 Rocket 3.2 20:39:15 10° SW 20:44:42 51° WNW 20:50:09 10° NNE
Resurs 01 Rocket 2.1 20:40:48 10° S 20:45:12 62° W 20:49:38 10° NNW
Cosmos 1300 Rocket 3.9 20:42:34 10° SSE 20:46:35 40° E 20:50:38 10° NNE
Tiangong 1 0.9 20:51:04 10° WNW 20:53:51 65° N 20:55:23 23° E
SeaSat 1 2.4 20:49:24 10° NNE 20:54:21 86° ESE 20:59:17 10° SSW
Cosmos 1025 Rocket 4.3 20:51:06 10° NNE 20:54:30 23° ENE 20:56:02 19° ESE
CZ-4B DEB 4.4 20:52:59 13° SSE 20:56:07 73° ENE 20:59:39 10° N
Meteor 1-13 Rocket 4.3 20:50:36 10° N 20:56:36 86° E 21:02:32 10° S
Cosmos 2151 Rocket 3.7 20:53:46 10° S 20:58:09 80° W 21:02:34 10° N
Meteor 2-4 Rocket 3.7 20:53:02 10° N 20:58:34 64° E 21:03:48 12° SSE
Cosmos 44 4.0 20:56:38 10° NW 21:00:53 46° WSW 21:05:15 10° S
Lacrosse 5 2.3 20:57:05 10° SSW 21:01:48 39° SE 21:06:30 10° ENE
NOSS 2-3 (C) 3.8 20:57:50 10° SSW 21:02:24 63° ESE 21:07:41 10° NE
DELTA 2 R/B (1) 4.3 20:59:15 10° W 21:04:31 42° SSW 21:07:58 20° SE
Spot 2 Rocket 4.4 21:00:11 10° S 21:05:07 49° W 21:10:05 10° NNW
Cosmos 1140 Rocket 3.9 21:00:01 10° NNW 21:05:12 62° WSW 21:10:22 10° S
EXPRESS MD2 3.7 21:04:27 10° WSW 21:07:03 52° NNW 21:11:37 10° NE
Cosmos 614 Rocket 4.3 21:05:55 10° NNW 21:10:58 64° WSW 21:15:50 11° S
Atlas Centaur 2 3.6 21:04:28 10° WSW 21:11:39 35° S 21:15:23 22° SE
CZ-4B DEB 2.6 21:16:27 47° E 21:16:45 50° ENE 21:19:33 10° N
Okean 2 4.1 21:15:48 10° N 21:19:33 34° ENE 21:20:18 32° E
Cosmos 1536 Rocket 4.1 21:15:33 10° NNW 21:19:47 57° W 21:24:02 10° S
Helios 1A 3.0 21:21:40 21° S 21:24:26 80° WSW 21:28:43 10° NNW
Meteor 1-29 2.8 21:22:49 10° NNE 21:26:14 67° ESE 21:27:13 42° SSE
MetOp-A 4.3 21:25:06 29° SE 21:27:40 55° ENE 21:32:54 10° N
SAR-Lupe-4 3.6 21:27:40 47° ESE 21:28:23 59° ENE 21:31:56 10° N
ERS-1 Rocket 3.0 21:26:23 30° SE 21:28:47 63° ENE 21:33:46 10° N
Cosmos 1741 Rocket 4.2 21:24:50 10° NNW 21:30:03 71° WSW 21:33:28 22° S
H-2A R/B 2.9 21:29:52 28° E 21:31:03 31° ENE 21:35:25 10° N
BREEZE M DEB (TANK) 2.9 21:25:52 10° SW 21:34:11 48° SSE 21:34:57 42° ESE
ATLAS 3B R/B 3.0 21:28:36 10° NNW 21:35:08 49° NE 21:38:06 30° ESE
GPS 2-05 Rocket1 4.2 21:33:27 10° WSW 21:35:41 25° SSW 21:35:41 25° SSW
NOSS 2-3 (D) 4.3 21:37:34 10° SW 21:42:12 64° NW 21:47:38 10° NNE
SAR-Lupe-1 3.8 21:45:10 77° SE 21:45:22 82° ENE 21:48:57 10° N
Abrixas rocket 4.3 21:43:14 10° NW 21:45:55 22° N 21:47:01 19° NNE
SL-08 RB Rocket 4.0 21:45:27 46° E 21:46:06 49° ENE 21:50:30 10° N
Cosmos 1975 4.1 21:47:29 26° NE 21:47:29 26° NE 21:49:48 10° NNE
ARGOS 3.1 21:45:46 41° SE 21:47:35 68° ENE 21:52:55 10° N
Terra 3.4 21:50:12 21° ENE 21:50:12 21° ENE 21:53:39 10° NNE
Cosmos 2278 Rocket 4.2 21:48:47 10° NNE 21:51:49 14° NE 21:53:25 13° ENE
Cosmos 2263 Rocket 2.6 21:47:33 10° NNW 21:53:08 58° WSW 21:55:53 29° S
Cosmos 2322 Rocket 3.5 21:48:09 10° SW 21:53:31 41° WNW 21:58:54 10° N
Cosmos 2237 4.3 21:52:58 44° SSE 21:54:14 53° ESE 21:59:46 10° NNE
Cosmos 1302 Rocket 4.3 21:55:20 45° E 21:55:20 45° E 22:00:07 10° NNE
Cosmos 1844 Rocket 3.4 21:55:51 10° N 22:01:07 37° ENE 22:02:00 35° E
Cosmos 1244 Rocket 4.3 21:59:55 33° S 22:02:50 80° E 22:09:00 10° N
Cosmos 1455 Rocket 4.1 22:04:08 32° NE 22:04:08 32° NE 22:07:02 10° NNE
Cosmos 1110 Rocket 4.1 21:58:42 12° SSW 22:03:29 75° WNW 22:08:41 10° NNE
SL-16 R/B 3.8 21:59:12 10° WSW 22:04:20 34° WNW 22:09:29 10° N
Cosmos 1515 3.9 22:04:21 10° NNW 22:07:55 68° WNW 22:07:55 68° WNW
ATLAS 2AS CENTAUR R/B 3.3 22:00:57 10° SW 22:08:38 71° NW 22:16:48 10° NNE
Cosmos 2322 3.7 22:08:47 17° SSW 22:13:16 84° WNW 22:18:59 10° NNE
Cosmos 2219 Rocket 3.6 22:16:11 23° ENE 22:16:11 23° ENE 22:18:43 10° NE
DMSP B5D2-2 4.4 22:12:29 10° NNE 22:16:55 49° ENE 22:16:55 49° ENE
Cosmos 1331 Rocket 4.4 22:14:52 19° SW 22:18:34 63° WNW 22:23:46 10° NNE
Cosmos 1238 Rocket 4.0 22:12:51 10° N 22:19:39 88° E 22:21:22 53° S
COSMOS 2428 2.7 22:22:18 62° E 22:22:18 62° E 22:27:40 10° NNE
Cosmos 1500 4.0 22:24:18 50° NW 22:24:18 50° NW 22:27:36 10° N
SL-08 R/B 4.4 22:22:32 58° SSE 22:23:48 76° E 22:30:08 10° N
Aureole 3 Rocket 4.3 22:18:06 10° N 22:26:50 87° W 22:28:50 51° S
Cosmos 2360 Rocket 2.9 22:21:55 10° SW 22:27:25 53° WNW 22:32:55 10° NNE
YAOGAN 11 4.4 22:28:58 64° WNW 22:28:58 64° WNW 22:32:57 10° NNW
SPOT 1/Viking Rocket 3.5 22:31:56 75° SW 22:32:13 78° WSW 22:37:28 10° NNW
Cosmos 1844 4.0 22:27:31 10° NNW 22:33:04 51° ENE 22:33:04 51° ENE
Cosmos 1818 4.5 22:35:25 37° NE 22:35:25 37° NE 22:38:43 10° NE
Cosmos 2333 Rocket 3.6 22:38:20 25° NE 22:38:20 25° NE 22:40:52 10° NE
SPOT 5 3.3 22:35:22 51° WSW 22:35:39 52° W 22:40:18 10° NNW
Cosmos 2333 4.1 22:44:53 78° NNE 22:44:53 78° NNE 22:50:08 10° NNE
Lacrosse 5 3.2 22:40:01 10° WSW 22:44:45 39° NW 22:49:32 10° NNE
Nimbus 7 Rocket 4.5 22:41:48 10° N 22:47:40 74° WNW 22:48:39 61° SW
BREEZE-M DEB 4.1 22:42:12 10° WNW 22:46:59 41° NNW 22:46:59 41° NNW
H-2A R/B 3.7 22:50:04 27° NNE 22:50:04 27° NNE 22:52:24 10° N
Cosmos 1503 Rocket 4.4 22:48:59 10° NNW 22:53:32 60° NNE 22:53:32 60° NNE
Cosmos 1745 Rocket 3.9 22:55:56 70° WSW 22:56:27 74° W 23:02:36 10° N
Cosmos 2237 Rocket 3.9 23:00:29 21° NE 23:00:29 21° NE 23:02:32 10° NE
Atlas Centaur 2 4.3 22:54:53 10° WSW 22:58:01 18° SW 22:58:01 18° SW
NOSS 3-2 (A) 3.9 22:57:50 10° NW 23:05:25 84° NE 23:06:18 73° SE
USA 238 DEB 4.0 22:59:08 10° NW 23:06:03 56° WSW 23:06:30 55° SW
USA 238 4.0 22:59:14 10° NW 23:06:09 57° WSW 23:06:37 56° SW
H-2A R/B 3.4 23:10:30 30° W 23:10:30 30° W 23:14:50 10° NW
ATLAS 3B R/B 3.6 23:19:44 10° NW 23:25:20 33° WSW 23:25:20 33° WSW
Terra 3.3 23:29:05 32° NW 23:29:05 32° NW 23:32:06 10° NNW
Cosmos 2278 Rocket 2.9 23:31:06 10° NNW 23:35:15 50° NNW 23:35:15 50° NNW
NOSS 3-2 (C) 4.0 23:35:35 10° NW 23:42:56 77° W 23:42:56 77° W
Cosmos 1844 Rocket 4.2 23:39:56 10° NW 23:43:39 29° W 23:43:39 29° W
ATLAS CENTAUR R/B 4.4 23:45:52 10° N 23:45:53 10° N 23:45:53 10° N
